User: anonymous   Login
Location: Unspecified
(0.0000°N, 0.0000°E)
Time: 13:46:51
(UTC+00:00)
Language:

Explorer 27 - Orbit

View from above orbital plane
View from above orbital plane
View from above satellite
View from above satellite

Ground track
Ground track

The orbit data is extracted from the following two-line orbital elements,

1  1328U 65032A   17114.87264552 +.00000013 +00000-0 +14427-3 0  9998
2  1328 041.1847 265.5571 0248449 212.4209 146.1065 13.38523738541111
Epoch (UTC): 24 April 2017 20:56:36
Eccentricity: 0.0248449
inclination: 41.1847°
perigee height: 928 km
apogee height: 1301 km
right ascension of ascending node: 265.5571°
argument of perigee: 212.4209°
revolutions per day: 13.38523738
mean anomaly at epoch: 146.1065°
orbit number at epoch: 54111

The dashed part of the orbit path shows where the satellite is in the earth's shadow,  

DLR